Location: Capel Gartheli
(52.1833°N, 4.0667°W)
Time: 09:51:28
(UTC+00:00)

Cosmos 1725 Rocket - Pass Details

Date: 18 February 2020
Orbit: 963 x 990 km, 82.9° (Epoch: 03 April)

Event Time Altitude Azimuth Distance (km) Brightness Sun altitude
Rises 05:42:02 0° 350° (N) 3,681 6.9 -16.7°
Reaches altitude 10° 05:44:34 10° 354° (N) 2,733 6.3 -16.3°
Maximum altitude 05:50:49 67° 77° (ENE) 1,057 4.4 -15.3°
Drops below altitude 10° 05:57:04 10° 160° (SSE) 2,733 6.6 -14.4°
Sets 05:59:36 0° 163° (SSE) 3,681 7.3 -14.0°
